Live-Position
3D-Globus wird geladen...
Über OneWeb SL0645
Group: 3 satellites
Beschreibung wird geladen...
Nächste Überflüge
Passes for default location (London). Set your location on the main map for personalized predictions.
Höhenverlauf
Loading altitude history...
No altitude history available
Zweizeiliger Elementsatz
1 55809U 23029P 26124.52097923 .00000023 00000-0 26171-4 0 9991
2 55809 87.9143 313.6849 0002104 77.9547 282.1822 13.19725753153143
Epoch: 4. Mai 2026 •
Age: 12 hours
Aktueller Status
Höhe 1192.6 km
Geschwindigkeit 7.26 km/s
Subsatellitenpunkt -15.15°S,
94.84°W
Startdatum 9. März 2023
Alter 3.1 years
Typ internet
Startgruppe
Unknown Vehicle •
OneWeb Launch 17 •
40 satellites
OneWeb SL0530
55796
OneWeb SL0534 55797
OneWeb SL0556 55798
OneWeb SL0562 55799
OneWeb SL0563 55800
OneWeb SL0564 55801
OneWeb SL0638 55802
OneWeb SL0639 55803
OneWeb SL0640 55804
OneWeb SL0641 55805
OneWeb SL0642 55806
OneWeb SL0643 55807
OneWeb SL0644 55808
OneWeb SL0646 55810
OneWeb SL0648 55811
OneWeb SL0649 55812
OneWeb SL0650 55813
OneWeb SL0652 55814
OneWeb SL0653 55815
OneWeb SL0654 55816
...and 19 more
Technische Details
Klassifizierung Payload
Masse 148.00 kg
Trockenmasse 140.00 kg
Gesamtmasse 148.00 kg
Länge 1.30 m
Durchmesser 1.00 m
Spannweite 5.00 m
Form Trapezoid+2 pan
Hersteller ONEWUS
Bus-Typ ARROW
Phasenstatus In Orbit
Besitzer/Staat ONEWEBN/UK
Most Searched
Loading...